Flag for El Salvador Weather past 2 weeks in San Salvador, El Salvador

Now
68 °F

Passing clouds.


Feels Like: 68 °F
Forecast: 69 / 80 °F
Wind: No wind

Location: San Salvador / Ilopango

Current Time: Sep 20, 2014 at 8:14:39 AM

Latest Report: Sep 20, 2014 at 6:50 AM


Visibility: N/A

Pressure: 29.98 "Hg

Humidity: 100%

Dew point: 68 °F

Location of San SalvadorLocation

Historic Weather in San Salvador — Graph

°F

San Salvador temperature yesterday

Maximum temperature yesterday: 82 °F (at 11:50 AM)
Minimum temperature yesterday: 68 °F (at 5:50 AM)
Average temperature yesterday: 76 °F

Past Weeks' High & Low Weather Summary

 TemperatureHumidityPressure
High88 °F (Sep 8, 12:50 PM)100% (Sep 5, 5:50 PM)30.09 "Hg (Sep 5, 5:50 PM)
Low68 °F (Sep 7, 5:50 AM)59% (Sep 8, 12:50 PM)29.86 "Hg (Sep 10, 3:50 PM)
Average76 °F86%29.96 "Hg
* Reported Sep 5 1:50 PM — Sep 20 6:50 AM, San Salvador, Weather by CustomWeather, © 2014

Note: Actual official high and low records may vary slightly from our data, if they occured in-between our weather recording intervals... More about our weather records

Advertising

San Salvador weather history for previous 24 hours

 ConditionsComfort  
Time TempWeatherWind HumidityBarometerVisibility
6:50 AM
Sep 20
68 °FPassing clouds.No wind100%29.98 "HgN/A
6:00 AM70 °FMild.6 mph94%29.98 "HgN/A
11:50 PM
Sep 19
72 °FPassing clouds.No wind94%30.01 "HgN/A
10:50 PM72 °FPassing clouds.No wind94%30.01 "HgN/A
9:50 PM73 °FPassing clouds.No wind89%30.01 "HgN/A
8:50 PM73 °FPassing clouds.5 mph89%29.95 "HgN/A
7:50 PM73 °FPassing clouds.5 mph89%29.95 "HgN/A
6:50 PM73 °FPassing clouds.6 mph94%29.95 "HgN/A
5:50 PM75 °FPassing clouds.6 mph89%29.95 "HgN/A
4:50 PM79 °FPassing clouds.6 mph79%29.92 "HgN/A
3:50 PM81 °FScattered clouds.7 mph79%29.89 "HgN/A
2:50 PM82 °FScattered clouds.6 mph74%29.89 "HgN/A
1:50 PM82 °FScattered clouds.6 mph70%29.92 "HgN/A
12:50 PM81 °FScattered clouds.3 mph74%29.95 "HgN/A
11:50 AM82 °FScattered clouds.3 mph74%29.98 "HgN/A
10:50 AM81 °FPartly sunny.3 mph74%30.01 "HgN/A
9:50 AM77 °FScattered clouds.3 mph83%30.01 "HgN/A
8:50 AM75 °FScattered clouds.5 mph89%30.01 "HgN/A
Weather by CustomWeather, © 2014

See weather overviewHow to use our weather pages